| time (UTC) | temp F | wind direction | speed knots | gust knots | rain 1hr in | rain 24hr in | rain mn in | humidity % | barometer mb |
| 20260506154514 | 56 | 347 | 4.3 | 9.6 | 0.00 | 0.00 | 0.00 | 87 | 1013.7 |
| 20260506153009 | 56 | 12 | 1.7 | 7.8 | 0.00 | 0.00 | 0.00 | 87 | 1013.2 |
| 20260506151509 | 56 | 11 | 1.7 | 8.7 | 0.00 | 0.00 | 0.00 | 87 | 1012.7 |
| 20260506150008 | 56 | 13 | 1.7 | 9.6 | 0.00 | 0.00 | 0.00 | 87 | 1013.2 |
| 20260506144508 | 55 | 9 | 2.6 | 9.6 | 0.00 | 0.00 | 0.00 | 87 | 1012.7 |
| 20260506143007 | 55 | 13 | 5.2 | 10.4 | 0.00 | 0.00 | 0.00 | 87 | 1012.3 |
| 20260506141501 | 55 | 19 | 2.6 | 11.3 | 0.00 | 0.00 | 0.00 | 87 | 1012.2 |
| 20260506140104 | 55 | 355 | 4.3 | 10.4 | 0.00 | 0.00 | 0.00 | 86 | 1012.1 |
| 20260506134558 | 55 | 26 | 3.5 | 9.6 | 0.00 | 0.00 | 0.00 | 86 | 1011.8 |
| 20260506133101 | 55 | 340 | 4.3 | 10.4 | 0.00 | 0.00 | 0.00 | 86 | 1012.0 |
| 20260506131552 | 55 | 355 | 4.3 | 10.4 | 0.00 | 0.00 | 0.00 | 86 | 1011.8 |
| 20260506130053 | 55 | 15 | 4.3 | 9.6 | 0.00 | 0.00 | 0.00 | 86 | 1011.7 |
| 20260506124545 | 56 | 47 | 5.2 | 10.4 | 0.00 | 0.00 | 0.00 | 85 | 1011.5 |
| 20260506123043 | 56 | 11 | 6.1 | 11.3 | 0.00 | 0.00 | 0.00 | 84 | 1011.4 |
| 20260506121539 | 57 | 59 | 2.6 | 7.8 | 0.00 | 0.00 | 0.00 | 84 | 1010.8 |
| 20260506120037 | 57 | 5 | 2.6 | 9.6 | 0.00 | 0.00 | 0.00 | 83 | 1010.6 |
| 20260506114534 | 57 | 344 | 6.1 | 10.4 | 0.00 | 0.00 | 0.00 | 83 | 1010.3 |
| 20260506113031 | 57 | 360 | 3.5 | 10.4 | 0.00 | 0.00 | 0.00 | 82 | 1009.9 |
| 20260506111528 | 58 | 5 | 1.7 | 11.3 | 0.00 | 0.00 | 0.00 | 82 | 1009.6 |
| 20260506110025 | 58 | 355 | 1.7 | 7.8 | 0.00 | 0.00 | 0.00 | 82 | 1009.3 |
| 20260506104522 | 58 | 320 | 3.5 | 9.6 | 0.00 | 0.00 | 0.00 | 82 | 1009.1 |
| 20260506103022 | 58 | 27 | 3.5 | 9.6 | 0.00 | 0.00 | 0.00 | 82 | 1009.1 |
| 20260506101519 | 59 | 26 | 2.6 | 7.8 | 0.00 | 0.00 | 0.00 | 82 | 1008.6 |
| 20260506100015 | 59 | 346 | 2.6 | 7.0 | 0.00 | 0.00 | 0.00 | 82 | 1008.8 |
| 20260506094514 | 59 | 15 | 2.6 | 7.0 | 0.00 | 0.00 | 0.00 | 82 | 1008.7 |
| 20260506093013 | 59 | 45 | 0.9 | 3.5 | 0.00 | 0.00 | 0.00 | 82 | 1008.4 |
| 20260506091609 | 59 | 16 | 2.6 | 8.7 | 0.00 | 0.00 | 0.00 | 81 | 1008.3 |
| 20260506090006 | 60 | 5 | 2.6 | 7.8 | 0.00 | 0.00 | 0.00 | 81 | 1008.4 |
| 20260506084511 | 61 | 24 | 1.7 | 7.8 | 0.00 | 0.00 | 0.00 | 81 | 1008.3 |
| 20260506083001 | 61 | 355 | 4.3 | 8.7 | 0.00 | 0.00 | 0.00 | 81 | 1008.4 |
| 20260506081600 | 61 | 14 | 4.3 | 9.6 | 0.00 | 0.00 | 0.00 | 81 | 1008.1 |
| 20260506080112 | 62 | 335 | 0.9 | 8.7 | 0.00 | 0.00 | 0.00 | 81 | 1008.2 |
| 20260506073105 | 62 | 18 | 5.2 | 11.3 | 0.00 | 0.00 | 0.00 | 80 | 1008.0 |
| 20260506071551 | 63 | 341 | 2.6 | 10.4 | 0.00 | 0.00 | 0.00 | 80 | 1008.0 |
| 20260506061554 | 66 | 327 | 2.6 | 10.4 | 0.00 | 0.00 | 0.00 | 80 | 1007.7 |
| 20260506044517 | 76 | 18 | 1.7 | 7.8 | 0.00 | 0.00 | 0.00 | 83 | 1006.9 |
| 20260506043014 | 76 | 279 | 0.0 | 2.6 | 0.00 | 0.00 | 0.00 | 83 | 1006.6 |
| 20260506041514 | 76 | 278 | 0.9 | 3.5 | 0.00 | 0.00 | 0.00 | 83 | 1006.5 |
| 20260506040017 | 76 | 280 | 1.7 | 4.3 | 0.00 | 0.00 | 0.00 | 83 | 1006.6 |
| 20260506034513 | 76 | 278 | 1.7 | 3.5 | 0.00 | 0.00 | 0.00 | 83 | 1006.3 |
| 20260506033012 | 76 | 211 | 2.6 | 6.1 | 0.00 | 0.00 | 0.00 | 83 | 1005.8 |
| 20260506031512 | 76 | 184 | 2.6 | 6.1 | 0.00 | 0.00 | 0.00 | 83 | 1005.4 |
| 20260506030011 | 76 | 184 | 5.2 | 8.7 | 0.00 | 0.00 | 0.00 | 82 | 1004.9 |
| 20260506024511 | 77 | 191 | 2.6 | 5.2 | 0.00 | 0.00 | 0.00 | 81 | 1005.0 |
| 20260506023009 | 77 | 212 | 3.5 | 5.2 | 0.00 | 0.00 | 0.00 | 81 | 1005.1 |
| 20260506021509 | 77 | 209 | 0.9 | 7.0 | 0.00 | 0.00 | 0.00 | 80 | 1004.9 |
| 20260506020011 | 77 | 190 | 6.1 | 8.7 | 0.00 | 0.00 | 0.00 | 81 | 1004.5 |
| 20260506014509 | 77 | 171 | 5.2 | 7.8 | 0.00 | 0.00 | 0.00 | 79 | 1004.2 |
| 20260506013008 | 78 | 192 | 2.6 | 6.1 | 0.00 | 0.00 | 0.00 | 77 | 1004.8 |
| 20260506011507 | 79 | 211 | 3.5 | 7.8 | 0.00 | 0.00 | 0.00 | 77 | 1004.6 |
| 20260506010006 | 79 | 206 | 5.2 | 7.8 | 0.00 | 0.00 | 0.00 | 76 | 1004.3 |
| 20260506004518 | 80 | 208 | 5.2 | 7.8 | 0.00 | 0.00 | 0.00 | 75 | 1004.3 |
| 20260506003006 | 80 | 200 | 5.2 | 7.8 | 0.00 | 0.00 | 0.00 | 74 | 1004.2 |
| 20260506001505 | 81 | 202 | 6.1 | 7.8 | 0.00 | 0.00 | 0.00 | 73 | 1003.9 |
| 20260506000004 | 82 | 213 | 3.5 | 7.0 | 0.00 | 0.00 | 0.00 | 71 | 1004.0 |
| 20260505234504 | 83 | 246 | 4.3 | 9.6 | 0.00 | 0.00 | 0.00 | 70 | 1004.2 |
| 20260505233003 | 83 | 193 | 5.2 | 11.3 | 0.00 | 0.00 | 0.00 | 71 | 1004.0 |
| 20260505231502 | 82 | 244 | 6.1 | 11.3 | 0.00 | 0.00 | 0.00 | 71 | 1004.0 |
| 20260505230005 | 83 | 206 | 6.1 | 10.4 | 0.00 | 0.00 | 0.00 | 71 | 1004.0 |
| 20260505224501 | 83 | 222 | 9.6 | 14.8 | 0.00 | 0.00 | 0.00 | 71 | 1003.8 |
| 20260505223105 | 83 | 198 | 11.3 | 16.5 | 0.00 | 0.00 | 0.00 | 71 | 1003.8 |
| 20260505221602 | 83 | 190 | 7.0 | 17.4 | 0.00 | 0.00 | 0.00 | 70 | 1003.8 |
| 20260505220108 | 83 | 238 | 10.4 | 17.4 | 0.00 | 0.00 | 0.00 | 69 | 1003.7 |
| 20260505214612 | 84 | 198 | 12.2 | 20.0 | 0.00 | 0.00 | 0.00 | 70 | 1003.5 |
| 20260505213056 | 84 | 230 | 9.6 | 19.1 | 0.00 | 0.00 | 0.00 | 69 | 1003.8 |
| 20260505211631 | 84 | 243 | 9.6 | 19.1 | 0.00 | 0.00 | 0.00 | 70 | 1003.8 |
| 20260505210054 | 84 | 251 | 9.6 | 19.1 | 0.00 | 0.00 | 0.00 | 69 | 1003.9 |
| 20260505204602 | 84 | 227 | 10.4 | 24.3 | 0.00 | 0.00 | 0.00 | 69 | 1004.1 |
| 20260505203049 | 84 | 192 | 11.3 | 19.1 | 0.00 | 0.00 | 0.00 | 71 | 1004.1 |
| 20260505201546 | 83 | 207 | 9.6 | 20.0 | 0.00 | 0.00 | 0.00 | 71 | 1004.3 |
| 20260505200044 | 83 | 200 | 13.9 | 23.5 | 0.00 | 0.00 | 0.00 | 72 | 1004.3 |
| 20260505194542 | 82 | 228 | 14.8 | 25.2 | 0.00 | 0.00 | 0.00 | 72 | 1004.4 |
| 20260505193041 | 81 | 198 | 14.8 | 19.1 | 0.00 | 0.00 | 0.00 | 73 | 1004.6 |
| 20260505191540 | 81 | 187 | 12.2 | 20.9 | 0.00 | 0.00 | 0.00 | 74 | 1004.7 |
| 20260505190039 | 81 | 219 | 13.0 | 23.5 | 0.00 | 0.00 | 0.00 | 73 | 1004.7 |
| 20260505184542 | 82 | 227 | 13.9 | 20.9 | 0.00 | 0.00 | 0.00 | 72 | 1004.6 |
| 20260505183036 | 82 | 245 | 11.3 | 23.5 | 0.00 | 0.00 | 0.00 | 73 | 1004.8 |
| 20260505181539 | 81 | 232 | 13.0 | 20.0 | 0.00 | 0.00 | 0.00 | 74 | 1005.1 |
| 20260505180028 | 79 | 265 | 15.6 | 26.1 | 0.00 | 0.00 | 0.00 | 75 | 1005.3 |
| 20260505174535 | 79 | 215 | 9.6 | 21.7 | 0.00 | 0.00 | 0.00 | 77 | 1005.5 |
| 20260505173023 | 78 | 214 | 9.6 | 20.0 | 0.00 | 0.00 | 0.00 | 78 | 1005.4 |
| 20260505171530 | 78 | 233 | 13.9 | 20.0 | 0.00 | 0.00 | 0.00 | 77 | 1005.6 |
| 20260505170019 | 77 | 197 | 13.9 | 26.1 | 0.00 | 0.00 | 0.00 | 78 | 1005.3 |
| 20260505164517 | 77 | 217 | 13.0 | 26.1 | 0.00 | 0.00 | 0.00 | 79 | 1005.3 |
| 20260505163014 | 76 | 244 | 10.4 | 31.3 | 0.00 | 0.00 | 0.00 | 80 | 1005.2 |
| 20260505161512 | 75 | 221 | 13.9 | 25.2 | 0.00 | 0.00 | 0.00 | 81 | 1005.2 |